Retour au catalogue

CZ-6A DEB

ActifSSO
NORAD 56282·DEBRIS·🇨🇳 China

Lancé Nov 11, 2022 depuis Taiyuan Satellite Launch Center

Loading…

Prochains Passages (prochaines 24 heures)

TLE

FraisSource: Space-Track

Époque: Sep 14, 2026, 07:01 UTC

1 56282U 22151ADA 26257.29295517  .00002507  00000-0  11332-2 0  9992
2 56282  98.8525 269.8684 0069479  99.0224 261.8824 14.21682921180237

Suivez CZ-6A DEB en temps réel avec AllMySat

Download on the App Store